SCP
0 0 0 0 0 0 0 0 0 0 0 0 0 0 0 0 0 0 -0 -0 0 0 0 0 0 0 0 0 0 -0 -0 -0 0 -0 0 0 0 0 0 0 0 0 0 0
0 0 0 0 0 0 0 0 0 0 0 0 0 0 0 0 0 0 0 0 -0 0 -0 -0 0 0 -0 -0 0 -0 -0 -0 -0 -0 -0 -0 0 0 -0 0 0 0 0 0
0 0 0 0 0 0 0 0 0 0 0 0 0 0 0 0 0 0 -0 0 -0 -0 0 0 0 -0 0 0 -0 -0 -0 -0 0 -0 -0 -0 0 0 0 0 0 0 0 0
0 0 0 0 0 0 0 0 0 0 0 0 0 0 0 0 -0 0 0 0 0 0 -0 0 0 0 -0 -0 0 -0 -0 -0 0 -0 -0 -0 -0 0 0 0 0 0 0 0
0 0 0 0 0 0 0 0 0 0 0 0 0 0 0 0 -0 0 -0 0 -0 0 0 0 -0 0 0 -0 0 -0 -0 -0 -0 -0 -0 0 -0 -0 0 0 0 0 0 0
0 0 0 0 0 0 0 0 0 0 0 0 0 0 0 -0 -0 0 0 0 -0 0 0 0 0 0 -0 0 0 0 -0 -0 -0 -0 0 0 0 -0 0 0 0 0 0 0
0 0 0 0 0 0 0 0 0 0 0 0 0 -0 -0 -0 -0 -0 -0 0 0 0 0 0 0 0 -0 0 -0 -0 0 0 -0 -0 -0 0 0 -0 -0 0 -0 -0 0 0
0 0 0 0 0 -0 0 0 0 0 0 0 -0 -0 -0 -0 0 0 0 0 0 0 0 0 0 0 0 0 -0 0 -0 0 0 0 0 0 0 -0 0 0 0 -0 0 -0
0 0 0 0 0 -0 0 0 0 0 0 0 0 -0 0 0 0 0 0 0 0 -0 -0 0 0 0 0 -0 -0 -0 0 -0 0 0 0 0 0 -0 0 -0 0 0 0 0
0 0 0 0 0 -0 0 0 0 0 0 0 -0 0 0 0 0 0 0 -0 -0 -0 -0 -0 -0 0 0 0 0 -0 0 0 0 0 0 0 0 0 -0 0 -0 0 0 0
0 0 0 0 0 -0 0 0 0 0 0 0 -0 -0 0 0 0 0 0 -0 0 -0 -0 -0 -0 -0 0 0 -0 0 -0 0 0 0 0 0 0 0 0 0 0 0 -0 -0
0 0 0 0 0 -0 0 0 0 0 0 0 0 -0 -0 -0 -0 0 0 0 0 0 -0 0 -0 0 -0 0 0 -0 -0 0 0 0 0 0 -0 -0 -0 0 0 0 0 0
0 0 0 0 0 -0 0 0 0 0 0 0 0 0 0 0 0 0 0 0 0 0 0 0 0 -0 -0 0 -0 -0 -0 -0 -0 0 -0 0 0 -0 -0 -0 -0 0 0 0
0 0 0 0 0 0 0 0 0 0 0 -0 -0 0 0 0 0 0 0 0 0 0 0 0 0 0 0 0 0 -0 -0 -0 -0 -0 -0 -0 0 -0 0 0 0 0 0 -0
0 0 0 0 -0 -0 0 0 0 0 0 0 -0 0 0 0 0 0 0 0 0 0 0 0 0 0 0 0 0 0 0 -0 -0 -0 -0 -0 -0 0 0 0 0 0 0 0
0 0 0 0 0 0 0 0 0 0 0 0 -0 -0 0 0 0 0 0 0 0 0 0 0 0 0 0 0 0 0 0 0 -0 -0 0 -0 -0 0 0 0 0 0 0 0
0 0 0 0 0 0 0 0 0 0 0 0 -0 -0 0 0 0 0 0 0 0 0 0 0 0 0 0 0 0 0 0 0 0 0 0 -0 0 -0 -0 -0 -0 -0 -0 -0
0 0 0 0 0 0 0 0 0 0 0 0 0 -0 -0 0 0 0 0 0 0 0 0 0 0 0 0 0 0 0 0 0 0 0 0 -0 -0 -0 -0 -0 -0 -0 -0 -0
0 0 0 0 0 0 0 0 0 0 0 0 0 0 -0 0 0 0 0 0 0 0 0 0 0 0 0 0 0 0 0 0 0 -0 -0 -0 -0 -0 -0 -0 -0 -0 -0 -0
0 0 0 0 0 0 0 0 0 0 0 0 0 0 0 0 0 0 0 0 0 0 0 0 0 0 0 0 0 -0 -0 0 0 0 -0 -0 -0 -0 -0 -0 -0 0 -0 -0
0 0 0 0 0 0 0 0 0 0 0 0 0 0 0 0 0 0 0 0 0 0 0 0 0 -0 -0 -0 -0 -0 -0 -0 -0 -0 -0 -0 0 0 0 0 0 0 0 0
0 0 0 0 0 0 0 0 0 0 0 0 0 0 0 0 0 0 0 0 0 0 0 0 0 0 -0 -0 -0 -0 -0 -0 -0 -0 0 0 0 0 0 0 0 0 0 0
0 0 0 0 0 0 0 0 0 0 0 0 0 0 0 0 0 0 0 0 0 0 0 -0 0 0 0 0 0 -0 0 0 0 0 0 0 0 0 0 0 0 0 0 0
0 0 0 0 0 0 0 0 0 0 0 0 0 0 0 0 0 0 0 0 0 0 0 0 0 -0 0 0 0 -0 -0 0 0 0 0 0 0 0 0 0 0 0 0 0
0 0 0 0 0 0 0 0 0 0 0 0 0 0 0 0 0 0 0 0 0 0 0 0 0 0 0 0 0 0 0 0 0 0 0 0 0 0 0 0 0 0 0 0
0 0 0 0 0 0 0 0 0 0 0 0 0 0 0 0 0 0 0 0 0 0 0 0 0 0 0 0 0 0 0 0 0 0 0 0 0 0 0 0 0 0 0 0
0 0 0 0 0 0 0 0 0 0 0 0 0 0 0 0 0 0 0 0 0 -0 0 -0 0 0 0 0 0 0 0 0 0 0 0 0 0 0 0 0 0 0 0 0
Wind_Speed_500mb
48 47 51 54 51 52 65 27 5 30 43 8 5 6 9 15 33 35 15 11 25 23 23 15 9 11 7 31 17 26 9 9 9 35 7 11 7 8 7 7 5 3 7 9
46 50 48 48 45 51 56 30 23 22 21 3 7 10 12 12 10 10 8 9 11 16 13 17 11 8 13 25 29 11 10 8 17 20 4 8 6 6 7 9 5 10 10 9
45 45 52 45 41 49 43 14 6 13 11 11 6 12 11 10 17 15 13 20 27 17 26 10 22 32 15 35 34 39 10 6 11 13 26 22 13 17 6 8 7 7 9 2
44 43 46 46 39 45 40 6 7 13 7 10 11 4 6 21 9 11 13 11 8 22 19 35 10 13 37 18 22 7 6 10 3 20 24 4 9 10 16 12 5 4 4 9
45 45 40 41 41 43 29 7 11 12 14 19 9 8 8 27 16 5 27 12 29 30 27 34 51 39 34 20 5 6 4 9 8 11 6 22 24 29 25 16 16 8 9 8
46 44 43 37 35 37 20 19 27 20 15 7 3 7 11 26 36 24 20 30 37 34 33 39 63 71 66 41 36 27 5 4 10 9 1 6 9 14 16 12 17 5 19 10
44 42 37 36 35 32 28 28 22 10 10 4 11 27 42 35 30 26 58 56 12 31 81 88 49 37 27 21 19 15 5 3 4 9 12 10 2 3 2 15 15 14 6 18
47 41 37 34 36 29 30 26 16 9 9 16 28 17 20 36 39 29 31 51 42 61 39 10 14 10 7 5 6 14 19 5 5 3 5 1 3 10 9 7 6 20 15 24
47 42 38 35 35 33 29 23 23 16 13 9 14 26 15 10 8 10 17 47 49 26 6 5 7 7 8 10 13 11 10 8 4 7 7 2 5 14 20 1 5 12 19 20
46 42 39 35 34 32 30 28 21 16 19 43 23 8 12 15 9 9 16 29 18 23 9 6 5 8 6 9 12 9 4 4 4 6 5 7 12 24 14 9 9 22 25 23
46 44 38 38 35 34 30 31 26 25 21 55 54 33 23 27 29 7 27 20 8 8 11 5 6 5 7 7 7 11 6 7 5 4 7 5 35 6 9 7 20 29 26 28
47 44 37 38 35 33 31 27 23 28 34 49 64 70 61 56 50 41 10 6 5 6 5 5 5 6 6 6 7 8 7 5 6 7 3 6 14 14 12 22 20 22 28 35
49 45 36 40 33 33 26 28 30 31 29 50 32 21 21 18 20 19 11 7 6 7 10 4 4 8 4 5 5 6 8 9 2 7 4 4 11 8 26 29 25 29 29 30
51 46 37 41 35 31 24 33 33 29 13 11 15 13 30 35 39 19 28 34 32 25 22 11 5 5 3 3 3 2 3 10 8 3 5 4 2 24 29 27 23 24 24 26
51 47 36 40 36 37 35 31 39 33 22 9 21 53 26 8 15 18 20 25 25 15 6 6 6 7 3 2 4 4 1 3 0 2 3 4 7 27 29 22 24 25 27 27
57 47 33 33 30 24 24 15 24 31 31 9 7 11 20 16 17 20 25 22 21 13 8 7 10 7 6 2 4 4 5 8 11 3 12 9 13 14 21 19 22 22 24 27
59 45 31 35 31 30 27 11 1 19 7 7 10 12 8 11 16 7 7 13 11 12 8 7 6 6 3 3 5 8 8 7 10 4 6 2 7 3 12 15 17 19 21 25
59 38 28 33 33 29 35 41 33 27 18 10 3 9 9 4 5 3 4 6 9 10 7 5 2 11 2 4 8 11 8 17 12 2 3 5 6 8 11 16 17 19 26 29
47 24 30 29 27 16 22 25 30 35 14 6 7 6 7 5 3 5 4 2 3 6 2 3 3 4 7 12 15 20 17 16 13 8 7 10 10 15 16 16 16 19 22 25
36 29 13 12 13 19 21 12 6 9 14 16 6 12 5 5 5 5 6 4 1 3 5 10 4 7 11 18 17 17 17 16 19 22 14 17 17 14 10 10 13 15 18 21
43 22 18 18 19 18 12 10 9 9 4 15 12 34 5 5 3 5 4 3 1 3 7 5 5 7 8 31 27 23 20 19 25 19 22 19 13 8 4 3 8 14 20 25
40 26 28 19 14 11 7 6 3 5 10 11 10 14 15 7 7 5 2 3 5 9 6 6 7 8 16 38 33 28 25 26 28 27 21 13 6 4 5 10 15 21 27 34
47 14 15 14 8 6 13 16 7 3 12 20 17 5 10 9 6 9 4 4 8 5 5 7 8 8 31 39 37 34 34 35 32 23 13 7 9 11 15 19 24 30 35 41
14 20 12 11 7 10 11 8 8 13 11 34 25 12 6 6 6 2 4 4 4 6 4 9 6 18 32 39 38 38 40 35 25 15 10 11 14 18 23 28 33 39 43 47
17 16 12 12 13 7 7 16 9 10 34 33 14 12 3 4 6 2 4 6 7 10 8 6 17 34 28 39 37 38 37 28 17 10 10 14 20 25 29 33 38 45 51 57
17 13 8 4 4 3 11 22 14 29 32 20 9 6 7 4 6 4 11 9 10 7 7 20 35 29 29 36 35 35 31 20 11 10 13 18 24 29 33 36 41 50 56 60
12 7 21 30 5 8 18 25 25 39 26 5 6 8 12 4 4 5 8 9 6 11 31 34 31 21 30 32 34 35 26 15 10 12 17 23 30 34 37 44 48 55 55 54
Wind_Direction_500mb
322 325 331 336 339 335 336 340 292 312 306 333 325 263 207 283 299 313 265 265 269 286 329 304 292 296 291 329 338 320 264 288 288 289 267 201 249 155 143 152 175 120 132 273
323 325 330 331 331 335 335 322 289 301 310 275 283 267 272 262 293 271 304 276 276 315 310 313 280 285 300 326 342 311 310 320 319 332 4 106 322 199 165 110 87 192 143 259
318 321 328 329 331 336 338 317 313 315 287 275 253 296 269 289 296 270 251 271 290 311 306 246 285 287 297 318 302 307 336 287 211 279 291 305 303 7 7 152 147 180 232 347
318 320 324 323 327 338 346 291 268 290 299 306 274 259 248 299 301 243 291 302 229 323 307 309 242 255 301 305 298 339 70 279 260 288 298 294 24 19 30 67 18 167 291 91
311 322 319 320 328 336 342 280 314 303 271 285 268 278 270 290 294 258 303 234 283 304 285 276 292 300 297 298 332 4 354 292 315 294 49 72 54 31 46 48 19 38 29 74
315 311 325 316 321 335 330 311 305 288 273 285 291 275 277 293 304 299 255 284 301 296 276 270 282 278 275 263 273 280 264 286 345 274 64 253 32 13 20 80 39 343 36 322
309 306 317 311 314 325 316 304 302 267 272 196 262 295 293 290 289 275 286 295 269 286 306 303 287 268 269 262 253 213 228 73 249 282 339 47 177 329 286 91 52 29 1 341
309 303 308 302 309 319 311 296 294 266 273 257 295 311 297 301 294 281 273 288 304 312 311 305 336 340 12 332 240 204 204 170 287 350 31 195 7 11 352 2 26 21 1 350
304 299 300 297 301 314 307 298 288 261 290 258 287 301 285 286 291 301 259 314 328 338 293 331 335 326 328 348 346 16 167 208 351 338 70 32 305 326 321 349 4 11 13 353
293 295 298 291 296 311 299 293 295 261 263 280 267 258 284 286 302 271 302 334 335 1 355 348 326 305 337 355 352 338 7 12 202 288 94 323 343 318 328 62 274 351 357 340
283 291 291 289 282 299 292 294 296 261 266 281 276 267 252 275 291 273 304 336 350 348 14 49 305 308 300 347 333 334 8 325 13 5 59 317 342 10 64 285 320 338 348 351
275 285 287 287 276 288 286 283 294 287 254 267 283 285 282 275 271 271 268 262 294 312 15 350 325 315 319 352 332 357 26 1 348 9 81 95 58 77 358 357 326 341 345 352
269 277 281 280 269 291 266 275 287 289 277 297 273 288 279 259 269 274 262 256 237 269 301 269 276 274 286 338 321 291 355 10 35 207 75 140 71 3 3 357 347 349 1 357
261 270 276 277 263 287 266 278 278 265 262 264 282 288 287 292 291 256 238 252 272 281 286 230 244 236 271 283 286 151 253 335 324 45 56 100 106 11 355 356 359 6 15 9
252 266 269 273 259 270 261 270 273 258 223 261 286 298 290 266 254 244 265 256 257 275 267 214 236 249 301 50 27 278 298 219 7 278 133 300 314 339 352 4 8 13 13 22
246 263 257 252 271 275 256 276 248 229 224 272 293 295 276 265 256 260 269 253 258 234 246 248 270 266 332 113 226 231 195 238 245 275 302 291 306 302 349 12 16 22 21 23
240 255 248 232 269 257 240 240 148 176 233 246 292 304 259 271 278 242 240 218 237 238 259 246 278 287 7 120 218 177 218 213 175 259 346 177 346 336 25 34 37 33 35 32
228 239 237 239 259 263 257 253 249 258 198 225 224 267 323 284 270 228 231 214 227 232 266 271 355 307 103 265 214 175 184 173 190 291 83 143 115 77 74 67 69 64 54 47
220 209 226 250 255 230 241 242 233 205 198 226 185 173 252 314 306 291 266 254 274 278 187 256 21 311 229 221 178 188 186 182 176 168 142 126 135 112 99 87 70 56 44 33
184 195 214 211 193 184 158 192 212 224 209 221 210 198 264 333 13 6 329 18 181 254 259 321 112 261 257 188 178 175 180 182 173 160 169 156 139 126 106 75 50 30 14 4
177 181 186 169 164 176 188 201 197 193 269 213 228 199 182 195 121 221 12 212 305 16 260 121 308 280 232 181 180 180 184 180 175 173 161 158 156 145 106 33 350 340 335 333
177 164 141 153 182 188 173 211 297 182 223 205 172 200 193 161 178 108 324 159 43 247 318 63 286 252 176 173 177 178 181 174 170 169 174 180 192 220 268 302 311 314 320 323
146 147 153 151 173 171 190 202 233 229 198 185 172 165 162 136 158 81 81 80 231 304 43 233 234 301 183 176 178 181 178 172 174 181 190 222 251 265 283 295 306 311 316 317
150 157 165 181 202 234 196 188 189 199 180 161 151 109 136 131 76 140 107 239 61 13 358 243 273 314 200 186 184 184 178 178 183 196 230 261 272 278 290 299 305 308 312 317
162 153 195 205 210 202 193 205 174 155 150 145 114 81 126 3 84 66 91 16 271 204 235 243 313 336 210 199 192 188 185 188 197 230 269 285 288 290 294 297 304 309 315 317
164 171 105 139 98 212 199 190 172 157 153 129 108 113 70 259 129 95 222 132 228 253 225 292 317 323 208 203 197 189 191 199 223 264 289 300 299 301 304 306 310 315 315 316
178 213 201 177 160 182 188 181 174 165 159 166 121 119 201 91 68 276 194 211 222 264 310 316 315 296 205 199 193 190 197 209 242 279 297 308 310 311 311 314 319 314 319 317
Wind_Speed_850mb
48 47 51 54 51 52 65 27 5 30 43 8 5 6 9 15 33 35 15 11 25 23 23 15 9 11 7 31 17 26 9 9 9 35 7 11 7 8 7 7 5 3 7 9
46 50 48 48 45 51 56 30 23 22 21 3 7 10 12 12 10 10 8 9 11 16 13 17 11 8 13 25 29 11 10 8 17 20 4 8 6 6 7 9 5 10 10 9
45 45 52 45 41 49 43 14 6 13 11 11 6 12 11 10 17 15 13 20 27 17 26 10 22 32 15 35 34 39 10 6 11 13 26 22 13 17 6 8 7 7 9 2
44 43 46 46 39 45 40 6 7 13 7 10 11 4 6 21 9 11 13 11 8 22 19 35 10 13 37 18 22 7 6 10 3 20 24 4 9 10 16 12 5 4 4 9
45 45 40 41 41 43 29 7 11 12 14 19 9 8 8 27 16 5 27 12 29 30 27 34 51 39 34 20 5 6 4 9 8 11 6 22 24 29 25 16 16 8 9 8
46 44 43 37 35 37 20 19 27 20 15 7 3 7 11 26 36 24 20 30 37 34 33 39 63 71 66 41 36 27 5 4 10 9 1 6 9 14 16 12 17 5 19 10
44 42 37 36 35 32 28 28 22 10 10 4 11 27 42 35 30 26 58 56 12 31 81 88 49 37 27 21 19 15 5 3 4 9 12 10 2 3 2 15 15 14 6 18
47 41 37 34 36 29 30 26 16 9 9 16 28 17 20 36 39 29 31 51 42 61 39 10 14 10 7 5 6 14 19 5 5 3 5 1 3 10 9 7 6 20 15 24
47 42 38 35 35 33 29 23 23 16 13 9 14 26 15 10 8 10 17 47 49 26 6 5 7 7 8 10 13 11 10 8 4 7 7 2 5 14 20 1 5 12 19 20
46 42 39 35 34 32 30 28 21 16 19 43 23 8 12 15 9 9 16 29 18 23 9 6 5 8 6 9 12 9 4 4 4 6 5 7 12 24 14 9 9 22 25 23
46 44 38 38 35 34 30 31 26 25 21 55 54 33 23 27 29 7 27 20 8 8 11 5 6 5 7 7 7 11 6 7 5 4 7 5 35 6 9 7 20 29 26 28
47 44 37 38 35 33 31 27 23 28 34 49 64 70 61 56 50 41 10 6 5 6 5 5 5 6 6 6 7 8 7 5 6 7 3 6 14 14 12 22 20 22 28 35
49 45 36 40 33 33 26 28 30 31 29 50 32 21 21 18 20 19 11 7 6 7 10 4 4 8 4 5 5 6 8 9 2 7 4 4 11 8 26 29 25 29 29 30
51 46 37 41 35 31 24 33 33 29 13 11 15 13 30 35 39 19 28 34 32 25 22 11 5 5 3 3 3 2 3 10 8 3 5 4 2 24 29 27 23 24 24 26
51 47 36 40 36 37 35 31 39 33 22 9 21 53 26 8 15 18 20 25 25 15 6 6 6 7 3 2 4 4 1 3 0 2 3 4 7 27 29 22 24 25 27 27
57 47 33 33 30 24 24 15 24 31 31 9 7 11 20 16 17 20 25 22 21 13 8 7 10 7 6 2 4 4 5 8 11 3 12 9 13 14 21 19 22 22 24 27
59 45 31 35 31 30 27 11 1 19 7 7 10 12 8 11 16 7 7 13 11 12 8 7 6 6 3 3 5 8 8 7 10 4 6 2 7 3 12 15 17 19 21 25
59 38 28 33 33 29 35 41 33 27 18 10 3 9 9 4 5 3 4 6 9 10 7 5 2 11 2 4 8 11 8 17 12 2 3 5 6 8 11 16 17 19 26 29
47 24 30 29 27 16 22 25 30 35 14 6 7 6 7 5 3 5 4 2 3 6 2 3 3 4 7 12 15 20 17 16 13 8 7 10 10 15 16 16 16 19 22 25
36 29 13 12 13 19 21 12 6 9 14 16 6 12 5 5 5 5 6 4 1 3 5 10 4 7 11 18 17 17 17 16 19 22 14 17 17 14 10 10 13 15 18 21
43 22 18 18 19 18 12 10 9 9 4 15 12 34 5 5 3 5 4 3 1 3 7 5 5 7 8 31 27 23 20 19 25 19 22 19 13 8 4 3 8 14 20 25
40 26 28 19 14 11 7 6 3 5 10 11 10 14 15 7 7 5 2 3 5 9 6 6 7 8 16 38 33 28 25 26 28 27 21 13 6 4 5 10 15 21 27 34
47 14 15 14 8 6 13 16 7 3 12 20 17 5 10 9 6 9 4 4 8 5 5 7 8 8 31 39 37 34 34 35 32 23 13 7 9 11 15 19 24 30 35 41
14 20 12 11 7 10 11 8 8 13 11 34 25 12 6 6 6 2 4 4 4 6 4 9 6 18 32 39 38 38 40 35 25 15 10 11 14 18 23 28 33 39 43 47
17 16 12 12 13 7 7 16 9 10 34 33 14 12 3 4 6 2 4 6 7 10 8 6 17 34 28 39 37 38 37 28 17 10 10 14 20 25 29 33 38 45 51 57
17 13 8 4 4 3 11 22 14 29 32 20 9 6 7 4 6 4 11 9 10 7 7 20 35 29 29 36 35 35 31 20 11 10 13 18 24 29 33 36 41 50 56 60
12 7 21 30 5 8 18 25 25 39 26 5 6 8 12 4 4 5 8 9 6 11 31 34 31 21 30 32 34 35 26 15 10 12 17 23 30 34 37 44 48 55 55 54
Wind_Direction_850mb
322 325 331 336 339 335 336 340 292 312 306 333 325 263 207 283 299 313 265 265 269 286 329 304 292 296 291 329 338 320 264 288 288 289 267 201 249 155 143 152 175 120 132 273
323 325 330 331 331 335 335 322 289 301 310 275 283 267 272 262 293 271 304 276 276 315 310 313 280 285 300 326 342 311 310 320 319 332 4 106 322 199 165 110 87 192 143 259
318 321 328 329 331 336 338 317 313 315 287 275 253 296 269 289 296 270 251 271 290 311 306 246 285 287 297 318 302 307 336 287 211 279 291 305 303 7 7 152 147 180 232 347
318 320 324 323 327 338 346 291 268 290 299 306 274 259 248 299 301 243 291 302 229 323 307 309 242 255 301 305 298 339 70 279 260 288 298 294 24 19 30 67 18 167 291 91
311 322 319 320 328 336 342 280 314 303 271 285 268 278 270 290 294 258 303 234 283 304 285 276 292 300 297 298 332 4 354 292 315 294 49 72 54 31 46 48 19 38 29 74
315 311 325 316 321 335 330 311 305 288 273 285 291 275 277 293 304 299 255 284 301 296 276 270 282 278 275 263 273 280 264 286 345 274 64 253 32 13 20 80 39 343 36 322
309 306 317 311 314 325 316 304 302 267 272 196 262 295 293 290 289 275 286 295 269 286 306 303 287 268 269 262 253 213 228 73 249 282 339 47 177 329 286 91 52 29 1 341
309 303 308 302 309 319 311 296 294 266 273 257 295 311 297 301 294 281 273 288 304 312 311 305 336 340 12 332 240 204 204 170 287 350 31 195 7 11 352 2 26 21 1 350
304 299 300 297 301 314 307 298 288 261 290 258 287 301 285 286 291 301 259 314 328 338 293 331 335 326 328 348 346 16 167 208 351 338 70 32 305 326 321 349 4 11 13 353
293 295 298 291 296 311 299 293 295 261 263 280 267 258 284 286 302 271 302 334 335 1 355 348 326 305 337 355 352 338 7 12 202 288 94 323 343 318 328 62 274 351 357 340
283 291 291 289 282 299 292 294 296 261 266 281 276 267 252 275 291 273 304 336 350 348 14 49 305 308 300 347 333 334 8 325 13 5 59 317 342 10 64 285 320 338 348 351
275 285 287 287 276 288 286 283 294 287 254 267 283 285 282 275 271 271 268 262 294 312 15 350 325 315 319 352 332 357 26 1 348 9 81 95 58 77 358 357 326 341 345 352
269 277 281 280 269 291 266 275 287 289 277 297 273 288 279 259 269 274 262 256 237 269 301 269 276 274 286 338 321 291 355 10 35 207 75 140 71 3 3 357 347 349 1 357
261 270 276 277 263 287 266 278 278 265 262 264 282 288 287 292 291 256 238 252 272 281 286 230 244 236 271 283 286 151 253 335 324 45 56 100 106 11 355 356 359 6 15 9
252 266 269 273 259 270 261 270 273 258 223 261 286 298 290 266 254 244 265 256 257 275 267 214 236 249 301 50 27 278 298 219 7 278 133 300 314 339 352 4 8 13 13 22
246 263 257 252 271 275 256 276 248 229 224 272 293 295 276 265 256 260 269 253 258 234 246 248 270 266 332 113 226 231 195 238 245 275 302 291 306 302 349 12 16 22 21 23
240 255 248 232 269 257 240 240 148 176 233 246 292 304 259 271 278 242 240 218 237 238 259 246 278 287 7 120 218 177 218 213 175 259 346 177 346 336 25 34 37 33 35 32
228 239 237 239 259 263 257 253 249 258 198 225 224 267 323 284 270 228 231 214 227 232 266 271 355 307 103 265 214 175 184 173 190 291 83 143 115 77 74 67 69 64 54 47
220 209 226 250 255 230 241 242 233 205 198 226 185 173 252 314 306 291 266 254 274 278 187 256 21 311 229 221 178 188 186 182 176 168 142 126 135 112 99 87 70 56 44 33
184 195 214 211 193 184 158 192 212 224 209 221 210 198 264 333 13 6 329 18 181 254 259 321 112 261 257 188 178 175 180 182 173 160 169 156 139 126 106 75 50 30 14 4
177 181 186 169 164 176 188 201 197 193 269 213 228 199 182 195 121 221 12 212 305 16 260 121 308 280 232 181 180 180 184 180 175 173 161 158 156 145 106 33 350 340 335 333
177 164 141 153 182 188 173 211 297 182 223 205 172 200 193 161 178 108 324 159 43 247 318 63 286 252 176 173 177 178 181 174 170 169 174 180 192 220 268 302 311 314 320 323
146 147 153 151 173 171 190 202 233 229 198 185 172 165 162 136 158 81 81 80 231 304 43 233 234 301 183 176 178 181 178 172 174 181 190 222 251 265 283 295 306 311 316 317
150 157 165 181 202 234 196 188 189 199 180 161 151 109 136 131 76 140 107 239 61 13 358 243 273 314 200 186 184 184 178 178 183 196 230 261 272 278 290 299 305 308 312 317
162 153 195 205 210 202 193 205 174 155 150 145 114 81 126 3 84 66 91 16 271 204 235 243 313 336 210 199 192 188 185 188 197 230 269 285 288 290 294 297 304 309 315 317
164 171 105 139 98 212 199 190 172 157 153 129 108 113 70 259 129 95 222 132 228 253 225 292 317 323 208 203 197 189 191 199 223 264 289 300 299 301 304 306 310 315 315 316
178 213 201 177 160 182 188 181 174 165 159 166 121 119 201 91 68 276 194 211 222 264 310 316 315 296 205 199 193 190 197 209 242 279 297 308 310 311 311 314 319 314 319 317